View from above orbital plane
|
View from above satellite
|
Ground track
|
The orbit data is extracted from the following two-line orbital elements,
1 41590U 16038C 21055.67285969 -.00000433 00000-0 70978-3 0 9997
2 41590 25.3734 359.6763 8189988 340.9649 0.9149 1.18367186 20253
Epoch (UTC): | 24 February 2021 16:08:55 |
Eccentricity: | 0.8189988 |
inclination: | 25.3734° |
perigee height: | 454 km |
apogee height: | 62288 km |
right ascension of ascending node: | 359.6763° |
argument of perigee: | 340.9649° |
revolutions per day: | 1.18367186 |
mean anomaly at epoch: | 0.9149° |
orbit number at epoch: | 2025 |
The dashed part of the orbit path shows where the satellite is in the earth's shadow,
|
|